Time,TemperatureF,DewpointF,PressureIn,WindDirection,WindDirectionDegrees,WindSpeedMPH,WindSpeedGustMPH,Humidity,HourlyPrecipIn,Conditions,Clouds,dailyrainin,SoftwareType,DateUTC
2013-07-01 00:14:00,64.6,60.0,29.93,North,350,1.0,5.0,85,0.00,,,0.00,weatherlink.com 1.10,2013-07-01 05:14:00,
2013-07-01 00:29:00,64.1,60.0,29.93,NNW,347,3.0,5.0,87,0.00,,,0.00,weatherlink.com 1.10,2013-07-01 05:29:00,
2013-07-01 00:44:00,64.4,60.0,29.93,North,355,0.0,5.0,86,0.00,,,0.00,weatherlink.com 1.10,2013-07-01 05:44:00,
2013-07-01 00:59:00,64.9,60.0,29.93,NNW,333,5.0,9.0,85,0.00,,,0.00,weatherlink.com 1.10,2013-07-01 05:59:00,
2013-07-01 01:14:00,65.4,60.0,29.93,NNW,348,3.0,9.0,83,0.00,,,0.00,weatherlink.com 1.10,2013-07-01 06:14:00,
2013-07-01 01:29:00,66.1,60.0,29.93,NNW,338,5.0,10.0,81,0.00,,,0.00,weatherlink.com 1.10,2013-07-01 06:29:00,
2013-07-01 01:44:00,66.0,60.0,29.94,NE,38,5.0,11.0,80,0.00,,,0.00,weatherlink.com 1.10,2013-07-01 06:44:00,
2013-07-01 01:59:00,65.5,60.0,29.94,North,350,4.0,8.0,81,0.00,,,0.00,weatherlink.com 1.10,2013-07-01 06:59:00,
2013-07-01 02:14:00,65.0,60.0,29.93,NW,313,3.0,8.0,83,0.00,,,0.00,weatherlink.com 1.10,2013-07-01 07:14:00,
2013-07-01 02:29:00,64.6,60.0,29.93,NNW,338,1.0,7.0,84,0.00,,,0.00,weatherlink.com 1.10,2013-07-01 07:29:00,
2013-07-01 02:44:00,64.1,60.0,29.93,North,350,4.0,7.0,85,0.00,,,0.00,weatherlink.com 1.10,2013-07-01 07:44:00,
2013-07-01 02:59:00,63.8,59.0,29.93,NNW,335,4.0,8.0,85,0.00,,,0.00,weatherlink.com 1.10,2013-07-01 07:59:00,
2013-07-01 03:14:00,63.7,60.0,29.93,NNW,340,2.0,8.0,86,0.00,,,0.00,weatherlink.com 1.10,2013-07-01 08:14:00,
2013-07-01 03:29:00,63.3,59.0,29.93,NNW,335,3.0,9.0,87,0.00,,,0.00,weatherlink.com 1.10,2013-07-01 08:29:00,
2013-07-01 03:44:00,63.1,59.0,29.93,NNE,19,1.0,8.0,87,0.00,,,0.00,weatherlink.com 1.10,2013-07-01 08:44:00,
2013-07-01 03:59:00,63.1,59.0,29.93,North,355,2.0,8.0,85,0.00,,,0.00,weatherlink.com 1.10,2013-07-01 08:59:00,
2013-07-01 04:14:00,62.7,58.0,29.93,North,355,6.0,8.0,85,0.00,,,0.00,weatherlink.com 1.10,2013-07-01 09:14:00,
2013-07-01 04:30:00,62.2,57.0,29.94,NNW,343,5.0,7.0,84,0.00,,,0.00,weatherlink.com 1.10,2013-07-01 09:30:00,
2013-07-01 04:45:00,61.7,57.0,29.94,North,355,3.0,7.0,84,0.00,,,0.00,weatherlink.com 1.10,2013-07-01 09:45:00,
2013-07-01 05:00:00,60.8,57.0,29.95,NW,311,2.0,5.0,86,0.00,,,0.00,weatherlink.com 1.10,2013-07-01 10:00:00,
2013-07-01 05:15:00,59.9,56.0,29.95,NNW,334,2.0,6.0,88,0.00,,,0.00,weatherlink.com 1.10,2013-07-01 10:15:00,
2013-07-01 05:30:00,59.6,57.0,29.95,North,355,3.0,6.0,90,0.00,,,0.00,weatherlink.com 1.10,2013-07-01 10:30:00,
2013-07-01 05:45:00,59.1,56.0,29.95,North,350,3.0,7.0,90,0.00,,,0.00,weatherlink.com 1.10,2013-07-01 10:45:00,
2013-07-01 06:00:00,58.9,56.0,29.96,NNW,342,6.0,6.0,91,0.00,,,0.00,weatherlink.com 1.10,2013-07-01 11:00:00,
2013-07-01 06:15:00,59.1,56.0,29.96,NNW,335,3.0,7.0,90,0.00,,,0.00,weatherlink.com 1.10,2013-07-01 11:15:00,
2013-07-01 06:30:00,59.8,57.0,29.96,NNW,336,4.0,8.0,89,0.00,,,0.00,weatherlink.com 1.10,2013-07-01 11:30:00,
2013-07-01 06:45:00,60.5,56.0,29.96,NW,322,5.0,10.0,86,0.00,,,0.00,weatherlink.com 1.10,2013-07-01 11:45:00,
2013-07-01 07:00:00,61.3,57.0,29.97,NNE,28,5.0,10.0,84,0.00,,,0.00,weatherlink.com 1.10,2013-07-01 12:00:00,
2013-07-01 07:15:00,62.4,57.0,29.97,North,9,1.0,10.0,81,0.00,,,0.00,weatherlink.com 1.10,2013-07-01 12:15:00,
2013-07-01 07:30:00,63.5,57.0,29.98,North,355,2.0,8.0,78,0.00,,,0.00,weatherlink.com 1.10,2013-07-01 12:30:00,
2013-07-01 07:45:00,64.3,56.0,29.98,North,355,9.0,12.0,74,0.00,,,0.00,weatherlink.com 1.10,2013-07-01 12:45:00,
2013-07-01 08:01:00,65.0,57.0,29.98,North,10,9.0,11.0,74,0.00,,,0.00,weatherlink.com 1.10,2013-07-01 13:01:00,
2013-07-01 08:15:00,65.6,57.0,29.99,North,360,5.0,12.0,74,0.00,,,0.00,weatherlink.com 1.10,2013-07-01 13:15:00,
2013-07-01 08:30:00,66.7,57.0,29.99,NNW,340,10.0,13.0,71,0.00,,,0.00,weatherlink.com 1.10,2013-07-01 13:30:00,
2013-07-01 08:45:00,66.1,57.0,29.99,NNW,348,4.0,13.0,72,0.00,,,0.00,weatherlink.com 1.10,2013-07-01 13:45:00,
2013-07-01 09:00:00,66.8,57.0,29.99,NNW,340,6.0,12.0,71,0.00,,,0.00,weatherlink.com 1.10,2013-07-01 14:00:00,
2013-07-01 09:16:00,68.3,59.0,29.99,NNE,32,5.0,13.0,71,0.00,,,0.00,weatherlink.com 1.10,2013-07-01 14:16:00,
2013-07-01 09:31:00,69.1,57.0,30.00,NW,324,8.0,14.0,66,0.00,,,0.00,weatherlink.com 1.10,2013-07-01 14:31:00,
2013-07-01 09:46:00,69.5,58.0,29.99,North,5,6.0,15.0,66,0.00,,,0.00,weatherlink.com 1.10,2013-07-01 14:46:00,
2013-07-01 10:01:00,69.4,57.0,30.00,NNE,22,7.0,13.0,65,0.00,,,0.00,weatherlink.com 1.10,2013-07-01 15:01:00,
2013-07-01 10:16:00,68.8,57.0,30.00,North,9,6.0,12.0,66,0.00,,,0.00,weatherlink.com 1.10,2013-07-01 15:16:00,
2013-07-01 10:31:00,68.4,57.0,30.00,North,355,6.0,10.0,68,0.00,,,0.00,weatherlink.com 1.10,2013-07-01 15:31:00,
2013-07-01 10:46:00,70.0,59.0,30.00,North,355,9.0,11.0,68,0.00,,,0.00,weatherlink.com 1.10,2013-07-01 15:46:00,
2013-07-01 11:01:00,71.2,58.0,30.00,NW,304,8.0,11.0,63,0.00,,,0.00,weatherlink.com 1.10,2013-07-01 16:01:00,
2013-07-01 11:16:00,71.0,59.0,30.00,NNE,19,3.0,11.0,67,0.00,,,0.00,weatherlink.com 1.10,2013-07-01 16:16:00,
2013-07-01 11:31:00,71.8,59.0,30.00,NNW,341,2.0,8.0,64,0.00,,,0.00,weatherlink.com 1.10,2013-07-01 16:31:00,
2013-07-01 11:46:00,74.1,61.0,30.00,NE,35,8.0,12.0,63,0.00,,,0.00,weatherlink.com 1.10,2013-07-01 16:46:00,
2013-07-01 12:01:00,74.3,61.0,30.00,NNE,22,4.0,13.0,63,0.00,,,0.00,weatherlink.com 1.10,2013-07-01 17:01:00,
2013-07-01 12:16:00,75.5,61.0,29.99,NNE,15,7.0,11.0,62,0.00,,,0.00,weatherlink.com 1.10,2013-07-01 17:16:00,
2013-07-01 12:31:00,76.1,62.0,29.99,NE,35,3.0,11.0,62,0.00,,,0.00,weatherlink.com 1.10,2013-07-01 17:31:00,
2013-07-01 12:46:00,77.2,62.0,29.99,NNW,333,9.0,12.0,60,0.00,,,0.00,weatherlink.com 1.10,2013-07-01 17:46:00,
2013-07-01 13:01:00,77.3,60.0,29.98,NNE,23,9.0,12.0,55,0.00,,,0.00,weatherlink.com 1.10,2013-07-01 18:01:00,
2013-07-01 13:16:00,77.9,60.0,29.98,North,355,4.0,13.0,55,0.00,,,0.00,weatherlink.com 1.10,2013-07-01 18:16:00,
2013-07-01 13:31:00,78.7,61.0,29.98,NNE,24,12.0,13.0,54,0.00,,,0.00,weatherlink.com 1.10,2013-07-01 18:31:00,
2013-07-01 13:46:00,79.0,60.0,29.97,NNW,346,9.0,17.0,52,0.00,,,0.00,weatherlink.com 1.10,2013-07-01 18:46:00,
2013-07-01 14:01:00,79.2,62.0,29.97,North,9,6.0,12.0,55,0.00,,,0.00,weatherlink.com 1.10,2013-07-01 19:01:00,
2013-07-01 14:16:00,78.9,60.0,29.97,North,5,8.0,15.0,53,0.00,,,0.00,weatherlink.com 1.10,2013-07-01 19:16:00,
2013-07-01 14:31:00,79.1,61.0,29.97,NE,36,14.0,17.0,55,0.00,,,0.00,weatherlink.com 1.10,2013-07-01 19:31:00,
2013-07-01 14:46:00,80.5,62.0,29.97,NE,38,11.0,15.0,53,0.00,,,0.00,weatherlink.com 1.10,2013-07-01 19:46:00,
2013-07-01 15:01:00,79.0,59.0,29.97,NE,39,9.0,14.0,50,0.00,,,0.00,weatherlink.com 1.10,2013-07-01 20:01:00,
2013-07-01 15:16:00,79.4,58.0,29.97,NNE,30,8.0,16.0,48,0.00,,,0.00,weatherlink.com 1.10,2013-07-01 20:16:00,
2013-07-01 15:31:00,79.8,59.0,29.97,NNW,329,8.0,14.0,49,0.00,,,0.00,weatherlink.com 1.10,2013-07-01 20:31:00,
2013-07-01 15:46:00,80.0,59.0,29.97,NNE,32,7.0,14.0,48,0.00,,,0.00,weatherlink.com 1.10,2013-07-01 20:46:00,
2013-07-01 16:01:00,79.8,57.0,29.96,NE,46,8.0,18.0,45,0.00,,,0.00,weatherlink.com 1.10,2013-07-01 21:01:00,
2013-07-01 16:16:00,80.1,57.0,29.96,NE,35,8.0,17.0,45,0.00,,,0.00,weatherlink.com 1.10,2013-07-01 21:16:00,
2013-07-01 16:31:00,78.9,57.0,29.96,NW,325,11.0,15.0,47,0.00,,,0.00,weatherlink.com 1.10,2013-07-01 21:31:00,
2013-07-01 16:46:00,79.7,57.0,29.96,North,360,10.0,16.0,46,0.00,,,0.00,weatherlink.com 1.10,2013-07-01 21:46:00,
2013-07-01 17:01:00,79.8,57.0,29.96,NNE,17,8.0,18.0,45,0.00,,,0.00,weatherlink.com 1.10,2013-07-01 22:01:00,
2013-07-01 17:16:00,79.4,57.0,29.96,NNW,344,8.0,17.0,47,0.00,,,0.00,weatherlink.com 1.10,2013-07-01 22:16:00,
2013-07-01 17:31:00,79.0,58.0,29.96,NNW,347,11.0,19.0,48,0.00,,,0.00,weatherlink.com 1.10,2013-07-01 22:31:00,
2013-07-01 17:47:00,78.4,56.0,29.96,NNW,343,10.0,16.0,47,0.00,,,0.00,weatherlink.com 1.10,2013-07-01 22:47:00,
2013-07-01 18:02:00,78.1,57.0,29.95,NNW,333,11.0,16.0,48,0.00,,,0.00,weatherlink.com 1.10,2013-07-01 23:02:00,
2013-07-01 18:17:00,77.6,57.0,29.95,North,5,7.0,14.0,49,0.00,,,0.00,weatherlink.com 1.10,2013-07-01 23:17:00,
2013-07-01 18:32:00,76.8,57.0,29.96,North,9,10.0,13.0,51,0.00,,,0.00,weatherlink.com 1.10,2013-07-01 23:32:00,
2013-07-01 18:47:00,76.5,57.0,29.96,North,5,8.0,15.0,51,0.00,,,0.00,weatherlink.com 1.10,2013-07-01 23:47:00,
2013-07-01 19:02:00,75.9,56.0,29.96,NNW,342,7.0,17.0,51,0.00,,,0.00,weatherlink.com 1.10,2013-07-02 00:02:00,
2013-07-01 19:17:00,75.4,56.0,29.96,NNE,13,5.0,14.0,52,0.00,,,0.00,weatherlink.com 1.10,2013-07-02 00:17:00,
2013-07-01 19:32:00,75.0,56.0,29.97,North,355,8.0,12.0,52,0.00,,,0.00,weatherlink.com 1.10,2013-07-02 00:32:00,
2013-07-01 19:47:00,74.5,56.0,29.98,NNE,19,7.0,12.0,52,0.00,,,0.00,weatherlink.com 1.10,2013-07-02 00:47:00,
2013-07-01 20:02:00,74.0,56.0,29.98,NNW,346,2.0,10.0,53,0.00,,,0.00,weatherlink.com 1.10,2013-07-02 01:02:00,
2013-07-01 20:17:00,73.5,55.0,29.98,NNW,340,4.0,14.0,53,0.00,,,0.00,weatherlink.com 1.10,2013-07-02 01:17:00,
2013-07-01 20:32:00,73.0,56.0,29.98,North,349,3.0,8.0,55,0.00,,,0.00,weatherlink.com 1.10,2013-07-02 01:32:00,
2013-07-01 20:47:00,72.2,55.0,29.98,NNW,335,1.0,8.0,56,0.00,,,0.00,weatherlink.com 1.10,2013-07-02 01:47:00,
2013-07-01 21:02:00,71.7,55.0,29.98,NNW,345,2.0,9.0,56,0.00,,,0.00,weatherlink.com 1.10,2013-07-02 02:02:00,
2013-07-01 21:17:00,71.1,55.0,29.98,NW,317,6.0,9.0,57,0.00,,,0.00,weatherlink.com 1.10,2013-07-02 02:17:00,
2013-07-01 21:32:00,70.7,55.0,29.99,NW,314,3.0,7.0,58,0.00,,,0.00,weatherlink.com 1.10,2013-07-02 02:32:00,
2013-07-01 21:47:00,70.1,55.0,29.99,North,355,5.0,6.0,59,0.00,,,0.00,weatherlink.com 1.10,2013-07-02 02:47:00,
2013-07-01 22:02:00,68.6,55.0,29.99,NNW,343,5.0,6.0,62,0.00,,,0.00,weatherlink.com 1.10,2013-07-02 03:02:00,
2013-07-01 22:17:00,68.0,55.0,29.99,NNW,327,3.0,6.0,64,0.00,,,0.00,weatherlink.com 1.10,2013-07-02 03:17:00,
2013-07-01 22:32:00,67.0,55.0,29.99,NNW,340,2.0,6.0,66,0.00,,,0.00,weatherlink.com 1.10,2013-07-02 03:32:00,
2013-07-01 22:47:00,66.5,55.0,29.99,North,351,3.0,6.0,67,0.00,,,0.00,weatherlink.com 1.10,2013-07-02 03:47:00,
2013-07-01 23:02:00,66.7,55.0,29.99,North,350,2.0,8.0,66,0.00,,,0.00,weatherlink.com 1.10,2013-07-02 04:02:00,
2013-07-01 23:17:00,67.2,55.0,29.99,NNW,344,5.0,8.0,65,0.00,,,0.00,weatherlink.com 1.10,2013-07-02 04:17:00,
2013-07-01 23:32:00,67.1,54.0,29.99,North,351,2.0,7.0,64,0.00,,,0.00,weatherlink.com 1.10,2013-07-02 04:32:00,
2013-07-01 23:47:00,67.0,54.0,29.99,North,355,4.0,8.0,64,0.00,,,0.00,weatherlink.com 1.10,2013-07-02 04:47:00,